Orbital Elements at Epoch 2459200.5 (2020-Dec-17.0) TDB
Reference: JPL 24 (heliocentric ecliptic J2000)
Element | Value | Uncertainty (1-sigma) | Units |
e | .04369786287730081 | 4.3834e-08 | |
a | 3.023596174618042 | 1.6738e-08 | au |
q | 2.891471483583252 | 1.3761e-07 | au |
i | 5.501136692884151 | 4.7055e-06 | deg |
node | 210.623823671783 | 4.069e-05 | deg |
peri | 177.9417555737963 | 6.3102e-05 | deg |
M | 264.3064921129393 | 5.0226e-05 | deg |
tp | 2459710.962780732174 (2022-May-11.46278073) | 0.0002701 | TDB |
period | 1920.366439910089 5.26 | 1.5946e-05 4.366e-08 | d yr |
n | .1874642216809699 | 1.5567e-09 | deg/d |
Q | 3.155720865652833 | 1.7469e-08 | au |
|
| | Orbit Determination Parameters
Additional Information
|